Weather History for Melbourne, FL

Change the Weather History Date:

Saturday, January 19, 2013

  Actual Average Record
Temperature  
Mean Temperature 69 °F 60 °F  
Max Temperature 73 °F 71 °F 88 °F (1943)
Min Temperature 65 °F 49 °F 17 °F (1977)
Degree Days  
Heating Degree Days 0 6  
Month to date heating degree days 8 114  
Since 1 July heating degree days 156 293  
Cooling Degree Days 4 1  
Month to date cooling degree days 77 22  
Year to date cooling degree days 77 22  
Growing Degree Days 19 (Base 50)    
Moisture  
Dew Point 62 °F    
Average Humidity 78    
Maximum Humidity 87    
Minimum Humidity 68    
Precipitation  
Precipitation 0.10 in 0.07 in 0.79 in (1978)
Month to date precipitation 1.50 1.34  
Year to date precipitation 1.50 1.34  
Sea Level Pressure  
Sea Level Pressure 30.19 in    
Wind  
Wind Speed 14 mph (ENE)    
Max Wind Speed 25 mph    
Max Gust Speed 31 mph    
Visibility 9 miles    
Events Rain    
T = Trace of Precipitation, MM = Missing Value Source: NWS Daily Summary

Daily Weather History Graph

Daily Weather History Graph

Search for Another Location

Airport:

Trip Planner

Search our weather history database for the weather conditions in past years. The results will help you decide how hot, cold, wet, or windy it might be!

Date:

Astronomy

Jan. 19, 2013 Rise Set
Actual Time 7:14 AM EST 5:52 PM EST
Civil Twilight 6:49 AM EST 6:17 PM EST
Nautical Twilight 6:20 AM EST 6:46 PM EST
Astronomical Twilight 5:52 AM EST 7:14 PM EST
Moon 12:12 PM EST (1/19) 12:55 AM EST (1/19)
Length of Visible Light 11h 28m
Length of Day
10h 37m
First Quarter, 57% of the Moon is Illuminated
Jan 19
First Quarter
Jan 26
Full
Feb 3
Last Quarter
Feb 10
New
Feb 17
First Quarter

Hourly Weather History & Observations

Time (EST) Temp. Dew Point Humidity Pressure Visibility Wind Dir Wind Speed Gust Speed Precip Events Conditions
12:53 AM 66.9 °F 57.9 °F 73% 30.22 in 10.0 mi NE 20.7 mph 27.6 mph N/A   Overcast
1:53 AM 66.9 °F 59.0 °F 76% 30.21 in 10.0 mi ENE 20.7 mph 28.8 mph N/A   Overcast
2:53 AM 68.0 °F 57.9 °F 70% 30.20 in 10.0 mi ENE 18.4 mph - N/A   Overcast
3:53 AM 68.0 °F 59.0 °F 73% 30.20 in 10.0 mi NE 19.6 mph 27.6 mph N/A   Overcast
4:53 AM 66.9 °F 60.1 °F 79% 30.20 in 10.0 mi ENE 17.3 mph 25.3 mph 0.00 in   Overcast
5:53 AM 68.0 °F 60.1 °F 76% 30.21 in 10.0 mi NE 15.0 mph - N/A   Overcast
6:53 AM 66.9 °F 61.0 °F 81% 30.22 in 10.0 mi NNE 13.8 mph - 0.00 in   Overcast
7:53 AM 66.9 °F 63.0 °F 87% 30.23 in 10.0 mi NE 15.0 mph 20.7 mph 0.03 in Rain Light Rain
8:00 AM 66.2 °F 62.6 °F 88% 30.23 in 10.0 mi NE 17.3 mph 23.0 mph 0.00 in   Overcast
8:53 AM 68.0 °F 63.0 °F 84% 30.25 in 10.0 mi NE 13.8 mph - 0.00 in   Mostly Cloudy
9:53 AM 70.0 °F 64.0 °F 81% 30.27 in 10.0 mi NE 15.0 mph 20.7 mph N/A   Mostly Cloudy
10:53 AM 72.0 °F 63.0 °F 73% 30.26 in 10.0 mi NE 19.6 mph 23.0 mph N/A   Scattered Clouds
11:53 AM 71.1 °F 64.0 °F 78% 30.23 in 10.0 mi NE 19.6 mph 26.5 mph N/A   Scattered Clouds
12:53 PM 71.1 °F 63.0 °F 75% 30.20 in 10.0 mi NNE 15.0 mph 20.7 mph 0.00 in   Mostly Cloudy
1:37 PM 71.6 °F 62.6 °F 73% 30.18 in 10.0 mi NE 15.0 mph - N/A   Overcast
1:53 PM 71.1 °F 62.1 °F 73% 30.17 in 10.0 mi NE 15.0 mph - N/A   Overcast
2:53 PM 71.1 °F 63.0 °F 75% 30.16 in 10.0 mi NE 15.0 mph - N/A   Overcast
3:53 PM 69.1 °F 64.0 °F 84% 30.15 in 10.0 mi NE 11.5 mph - 0.02 in Rain Light Rain
4:41 PM 68.0 °F 62.6 °F 83% 30.15 in 2.5 mi NE 13.8 mph - 0.00 in Rain Light Rain
4:53 PM 69.1 °F 63.0 °F 81% 30.15 in 3.0 mi ENE 12.7 mph - 0.00 in   Haze
5:53 PM 69.1 °F 63.0 °F 81% 30.16 in 10.0 mi NE 11.5 mph - 0.00 in   Overcast
6:53 PM 69.1 °F 63.0 °F 81% 30.17 in 10.0 mi NE 9.2 mph - N/A   Overcast
7:53 PM 69.1 °F 64.0 °F 84% 30.18 in 10.0 mi East 11.5 mph - N/A   Overcast
8:00 PM 68.0 °F 64.4 °F 88% 30.18 in 9.0 mi East 13.8 mph 20.7 mph 0.00 in Rain Light Rain
8:53 PM 68.0 °F 64.9 °F 90% 30.18 in 10.0 mi ENE 8.1 mph - 0.03 in   Overcast
9:00 PM 68.0 °F 64.4 °F 88% 30.18 in 10.0 mi East 10.4 mph - N/A   Overcast
9:53 PM 68.0 °F 64.0 °F 87% 30.16 in 10.0 mi East 9.2 mph - N/A   Overcast
10:53 PM 66.9 °F 63.0 °F 87% 30.16 in 10.0 mi Calm Calm - 0.00 in Rain Light Rain
11:07 PM 66.2 °F 62.6 °F 88% 30.15 in 7.0 mi WSW 4.6 mph - 0.00 in Rain Light Rain
11:14 PM 66.2 °F 62.6 °F 88% 30.15 in 4.0 mi SSW 5.8 mph - 0.01 in Rain Rain
11:53 PM 66.0 °F 64.9 °F 96% 30.14 in 10.0 mi Calm Calm - 0.02 in Rain Light Rain